Regional Weather Roundup
Issued by NWS

Home | Current Version | Previous Version | Text Only | Print | Product List | Glossary On
Versions: 1 2 3 4 5 6 7 8 9 10 11 12 13 14 15 16 17 18 19 20 21 22 23 24 25 26 27 28 29 30 31 32 33 34 35 36 37 38 39 40 41 42 43 44 45 46 47 48 49 50
000
ASUS43 KTOP 232308
RWRKS

WEATHER ROUNDUP FOR KANSAS
NATIONAL WEATHER SERVICE GOODLAND KS
600 PM CDT TUE SEP 23 2014

NOTE:  "FAIR" INDICATES FEW OR NO CLOUDS BELOW 12,000 FEET WITH NO
SIGNIFICANT WEATHER AND/OR OBSTRUCTIONS TO VISIBILITY.

KSZ001>006-013>018-027>032-041>047-240000-
NORTHWEST KANSAS

CITY           SKY/WX    TMP DP  RH WIND       PRES   REMARKS
GOODLAND       PTSUNNY   79  57  46 CALM      30.04R
HILL CITY      SUNNY     85  63  47 S9        29.95F
RUSSELL        MOSUNNY   76  58  53 SE15      29.97S
$$

KSZ061>065-074>080-084>089-240000-
SOUTHWEST KANSAS

CITY           SKY/WX    TMP DP  RH WIND       PRES   REMARKS
DODGE CITY     PTSUNNY   85  56  37 S23G30    29.94F
ELKHART          N/A     89  52  28 SW14        N/A
GARDEN CITY    PTSUNNY   86  55  34 SW7       29.92R
GREAT BEND     MOSUNNY   81  57  44 SE20G25   29.96F
LIBERAL        MOSUNNY   90  55  31 S24       29.95F
PRATT          CLOUDY    79  52  38 SE18G24   30.01F
$$

KSZ066>073-081>083-090>101-240000-
SOUTHEAST KANSAS

CITY           SKY/WX    TMP DP  RH WIND       PRES   REMARKS
CHANUTE        SUNNY     74  54  49 SE12      30.13S
COFFEYVILLE    SUNNY     75  53  46 SE10      30.11F
HUTCHINSON     PTSUNNY   79  54  41 S17       30.03S
MEDICINE LODGE   N/A     84  55  36 S12G26    29.99F
NEWTON         PTSUNNY   75  50  41 S18       30.08S
PARSONS        SUNNY     75  53  46 SE8       30.14S
WICHITA INTL   LGT RAIN  76  53  44 SE18      30.05S
WICHITA JABRA  CLOUDY    74  52  46 SE14G21   30.05F
WICHITA MCCONL LGT RAIN  75  53  46 SE15      30.06F
WINFIELD       PTSUNNY   77  51  40 SE14      30.09S
$$

KSZ007>012-019>026-033>040-048>060-102>105-240000-
NORTHEAST KANSAS

CITY           SKY/WX    TMP DP  RH WIND       PRES   REMARKS
CONCORDIA      CLOUDY    66  61  84 SE16      30.03F
EMPORIA        PTSUNNY   73  52  47 SE16G24   30.09S
LAWRENCE       PTSUNNY   72  52  49 SE10      30.13S
MANHATTAN      CLOUDY    65  61  87 SE6       30.08F
MARYSVILLE     CLOUDY    61  59  94 SE12      30.09S
OLATHE IND     MOSUNNY   72  54  53 SE12      30.15S
OLATHE EXE     MOSUNNY   71  52  50 SE8       30.14F
SALINA         CLOUDY    75  58  55 SE15      30.02F
TOPEKA BILLARD LGT RAIN  74  54  49 SE8       30.12R
TOPEKA FORBES  CLOUDY    72  53  51 SE7       30.12R
$$



USA.gov is the U.S. government's official web portal to all federal, state and local government web resources and services.